Vancouver, WA
on Saturday, January 12, 2013

Saturday
Previous Day Next Day
Daily Summary
 ActualAverageRecord
Temperature
Mean Temperature °F / °C 41°F / 5°C  
Max Temperature 33°F / 1°C 47°F / 8°C 58°F / 14°C (1912)
Min Temperature 22°F / -6°C 35°F / 2°C -8°F / -22°C (1909)
Degree Days
Heating Degree Days 37    
Month to date heating degree days 338  
Since 1 July heating degree days 1886  
Cooling Degree Days 0    
Month to date cooling degree days 0  
Year to date cooling degree days 0  
Moisture
Dew Point 25°F / -4°C   
Average Humidity 85    
Maximum Humidity 92    
Minimum Humidity 78    
Precipitation
Precipitation 0.00 in / 0.00 cm 0.18 in / 4.57 cm 1.60 in / 4.06 cm (1980)
Month to date precipitation 0.93 2.38  
Year to date precipitation 0.93 2.38  
Snow
Snow 0.00 in / 0.00 cm in / cm in / cm ()
Month to date snowfall 0.0  
Snow Depth 0.00 in / 0.00 cm   
Wind
Wind Speed 1 mph / 1 km/h   
Max Wind Speed 8 mph / 13 km/h   
Max Gust Speed 12 mph / 19 km/h   
Visibility 5 miles / 8 kilometers   
Events     

Key: T is trace of precipitation, MM is missing value
Source: NWS Daily Summary
Time(PST)TemperatureDew PointHumidity Pressure Visibility Wind DirectionWind SpeedGust SpeedPrecipitationEvents Conditions
12:53 AM 28.9°F / -1.7°C 27.0°F / -2.8°C 92% 30.33 in / 1026.9 hPa 6.0 miles / 9.7 kilometers Calm Calm - N/A   Overcast
1:30 AM 28.4°F / -2.0°C 24.8°F / -4.0°C 86% 30.33 in / 1027.0 hPa 5.0 miles / 8.0 kilometers Calm Calm - N/A   Mostly Cloudy
1:53 AM 27.0°F / -2.8°C 25.0°F / -3.9°C 92% 30.33 in / 1027.0 hPa 5.0 miles / 8.0 kilometers Calm Calm - N/A   Scattered Clouds
2:42 AM 24.8°F / -4.0°C 21.2°F / -6.0°C 86% 30.34 in / 1027.3 hPa 5.0 miles / 8.0 kilometers Calm Calm - N/A   Mostly Cloudy
2:53 AM 26.1°F / -3.3°C 23.0°F / -5.0°C 88% 30.34 in / 1027.3 hPa 5.0 miles / 8.0 kilometers Calm Calm - N/A   Overcast
3:53 AM 28.9°F / -1.7°C 26.1°F / -3.3°C 89% 30.33 in / 1027.0 hPa 6.0 miles / 9.7 kilometers Calm Calm - N/A   Overcast
4:53 AM 30.0°F / -1.1°C 28.0°F / -2.2°C 92% 30.33 in / 1027.1 hPa 8.0 miles / 12.9 kilometers Calm Calm - N/A   Overcast
5:53 AM 30.0°F / -1.1°C 28.0°F / -2.2°C 92% 30.34 in / 1027.3 hPa 5.0 miles / 8.0 kilometers Calm Calm - N/A   Overcast
6:53 AM 30.0°F / -1.1°C 28.0°F / -2.2°C 92% 30.35 in / 1027.5 hPa 5.0 miles / 8.0 kilometers West 3.5 mph / 5.6 km/h - N/A   Overcast
7:53 AM 30.0°F / -1.1°C 28.0°F / -2.2°C 92% 30.36 in / 1027.9 hPa 5.0 miles / 8.0 kilometers Calm Calm - N/A   Overcast
8:53 AM 30.0°F / -1.1°C 28.0°F / -2.2°C 92% 30.37 in / 1028.3 hPa 3.0 miles / 4.8 kilometers Calm Calm - N/A   Overcast
9:53 AM 30.9°F / -0.6°C 28.0°F / -2.2°C 89% 30.38 in / 1028.6 hPa 5.0 miles / 8.0 kilometers Calm Calm - N/A   Overcast
10:53 AM 32.0°F / 0.0°C 28.0°F / -2.2°C 85% 30.39 in / 1028.9 hPa 5.0 miles / 8.0 kilometers Calm Calm - N/A   Overcast
11:53 AM 32.0°F / 0.0°C 27.0°F / -2.8°C 82% 30.38 in / 1028.6 hPa 6.0 miles / 9.7 kilometers Calm Calm - N/A   Haze
12:53 PM 32.0°F / 0.0°C 27.0°F / -2.8°C 82% 30.37 in / 1028.2 hPa 6.0 miles / 9.7 kilometers Calm Calm - N/A   Haze
1:53 PM 32.0°F / 0.0°C 28.0°F / -2.2°C 85% 30.37 in / 1028.4 hPa 7.0 miles / 11.3 kilometers WNW 4.6 mph / 7.4 km/h - N/A   Overcast
2:53 PM 32.0°F / 0.0°C 27.0°F / -2.8°C 82% 30.39 in / 1028.9 hPa 8.0 miles / 12.9 kilometers WNW 5.8 mph / 9.3 km/h - N/A   Overcast
3:53 PM 32.0°F / 0.0°C 27.0°F / -2.8°C 82% 30.38 in / 1028.8 hPa 8.0 miles / 12.9 kilometers West 5.8 mph / 9.3 km/h - N/A   Scattered Clouds
4:16 PM 30.2°F / -1.0°C 26.6°F / -3.0°C 86% 30.38 in / 1028.7 hPa 8.0 miles / 12.9 kilometers WNW 3.5 mph / 5.6 km/h - N/A   Mostly Cloudy
4:53 PM 30.9°F / -0.6°C 27.0°F / -2.8°C 85% 30.38 in / 1028.6 hPa 7.0 miles / 11.3 kilometers Calm Calm - N/A   Mostly Cloudy
5:01 PM 30.2°F / -1.0°C 26.6°F / -3.0°C 86% 30.38 in / 1028.7 hPa 6.0 miles / 9.7 kilometers Calm Calm - N/A   Scattered Clouds
5:53 PM 28.0°F / -2.2°C 25.0°F / -3.9°C 88% 30.39 in / 1028.9 hPa 5.0 miles / 8.0 kilometers Calm Calm - N/A   Clear
6:53 PM 25.0°F / -3.9°C 23.0°F / -5.0°C 92% 30.38 in / 1028.8 hPa 4.0 miles / 6.4 kilometers Calm Calm - N/A   Clear
7:40 PM 24.8°F / -4.0°C 21.2°F / -6.0°C 86% 30.39 in / 1029.0 hPa 2.0 miles / 3.2 kilometers Calm Calm - N/A   Clear
7:53 PM 24.1°F / -4.4°C 21.9°F / -5.6°C 91% 30.40 in / 1029.3 hPa 4.0 miles / 6.4 kilometers Calm Calm - N/A   Clear
8:53 PM 24.1°F / -4.4°C 21.0°F / -6.1°C 88% 30.40 in / 1029.2 hPa 4.0 miles / 6.4 kilometers Calm Calm - N/A   Clear
8:57 PM 21.2°F / -6.0°C 19.4°F / -7.0°C 93% 30.39 in / 1029.0 hPa 1.8 miles / 2.8 kilometers Calm Calm - N/A   Clear
9:12 PM 23.0°F / -5.0°C 19.4°F / -7.0°C 86% 30.40 in / 1029.3 hPa 3.0 miles / 4.8 kilometers Calm Calm - N/A   Clear
9:24 PM 21.2°F / -6.0°C 19.4°F / -7.0°C 93% 30.40 in / 1029.3 hPa 2.5 miles / 4.0 kilometers Calm Calm - N/A   Clear
9:34 PM 21.2°F / -6.0°C 19.4°F / -7.0°C 93% 30.40 in / 1029.3 hPa 4.0 miles / 6.4 kilometers Calm Calm - N/A   Partly Cloudy
9:45 PM 24.8°F / -4.0°C 21.2°F / -6.0°C 86% 30.40 in / 1029.3 hPa 4.0 miles / 6.4 kilometers Calm Calm - N/A   Mostly Cloudy
9:53 PM 25.0°F / -3.9°C 21.9°F / -5.6°C 88% 30.41 in / 1029.7 hPa 3.0 miles / 4.8 kilometers Calm Calm - N/A   Mostly Cloudy
10:28 PM 26.6°F / -3.0°C 24.8°F / -4.0°C 93% 30.41 in / 1029.7 hPa 4.0 miles / 6.4 kilometers Calm Calm - N/A   Overcast
10:53 PM 28.9°F / -1.7°C 27.0°F / -2.8°C 92% 30.42 in / 1030.0 hPa 4.0 miles / 6.4 kilometers Calm Calm - N/A   Overcast
11:53 PM 30.0°F / -1.1°C 28.0°F / -2.2°C 92% 30.43 in / 1030.3 hPa 5.0 miles / 8.0 kilometers Calm Calm - N/A   Overcast
Moon Phase
Jan. 12 Jan. 18 Jan. 26 Feb. 03 Feb. 10
Sunrise:07:48 AM (PST) Moon Rise:08:05 AM (PST)1/12
Sunset:04:49 PM (PST) Moon Set:06:32 PM (PST)1/12

Copyright © 2014 The Weather Underground, Inc.